Wilmington, DE

11:21 PM EST on January 19, 2018 (GMT -0500)
New Castle County

Weather History for KILG - April, 2013

Change the Weather History Date:

Monday, April 15, 2013

  Actual Average Record
Temperature  
Mean Temperature 55 °F 53 °F  
Max Temperature 60 °F 63 °F 86 °F (1896)
Min Temperature 49 °F 43 °F 25 °F (1943)
Degree Days  
Heating Degree Days 10 12  
Month to date heating degree days 196 216  
Since 1 July heating degree days 4351 4522  
Cooling Degree Days 0 0  
Month to date cooling degree days 16 0  
Year to date cooling degree days 16 1  
Growing Degree Days 4 (Base 50)    
Moisture  
Dew Point 40 °F    
Average Humidity 61    
Maximum Humidity 72    
Minimum Humidity 50    
Precipitation  
Precipitation T in 0.11 in 4.36 in (2007)
Month to date precipitation 1.26 1.83  
Year to date precipitation 9.81 11.44  
Snow  
Snow 0.00 in 0.00 in T in (1962)
Month to date snowfall 0.0 0.2  
Since 1 July snowfall 5.5 20.1  
Snow Depth 0.00 in    
Sea Level Pressure  
Sea Level Pressure 30.29 in    
Wind  
Wind Speed 9 mph (ESE)    
Max Wind Speed 17 mph    
Max Gust Speed 21 mph    
Visibility 10 miles    
Events      
T = Trace of Precipitation, MM = Missing Value Source: NWS Daily Summary

Daily Weather History Graph

Daily Weather History Graph

Search for Another Location

Airport or City:

Trip Planner

Search our weather history database for the weather conditions in past years. The results will help you decide how hot, cold, wet, or windy it might be!

Date:

Astronomy

Apr. 15, 2013 Rise Set
Actual Time 6:24 AM EDT 7:40 PM EDT
Civil Twilight 5:56 AM EDT 8:08 PM EDT
Nautical Twilight 5:23 AM EDT 8:42 PM EDT
Astronomical Twilight 4:48 AM EDT 9:17 PM EDT
Moon 9:49 AM EDT (4/15) No Moon Set
Length of Visible Light 14h 11m
Length of Day
13h 16m
Waxing Crescent, 24% of the Moon is Illuminated
Apr 15
Waxing Crescent
Apr 18
First Quarter
Apr 25
Full
May 2
Last Quarter
May 9
New

Hourly Weather History & Observations

Time (EDT) Temp. Dew Point Humidity Pressure Visibility Wind Dir Wind Speed Gust Speed Precip Events Conditions
12:51 AM 53.1 °F 39.9 °F 61% 30.17 in 10.0 mi South 3.5 mph - N/A   Clear
1:51 AM 53.1 °F 37.9 °F 57% 30.20 in 10.0 mi ENE 6.9 mph - N/A   Clear
2:51 AM 51.1 °F 35.1 °F 54% 30.21 in 10.0 mi East 12.7 mph - N/A   Clear
3:51 AM 51.1 °F 34.0 °F 52% 30.24 in 10.0 mi East 8.1 mph - N/A   Mostly Cloudy
4:51 AM 51.1 °F 34.0 °F 52% 30.25 in 10.0 mi East 5.8 mph - N/A   Clear
5:51 AM 50.0 °F 33.1 °F 52% 30.26 in 10.0 mi East 6.9 mph - N/A   Partly Cloudy
6:51 AM 50.0 °F 33.1 °F 52% 30.29 in 10.0 mi ESE 5.8 mph - N/A   Clear
7:51 AM 50.0 °F 35.1 °F 57% 30.31 in 10.0 mi East 10.4 mph - N/A   Overcast
8:51 AM 48.9 °F 37.9 °F 66% 30.31 in 10.0 mi East 9.2 mph - 0.00 in   Overcast
9:51 AM 50.0 °F 37.9 °F 63% 30.31 in 10.0 mi East 11.5 mph - N/A   Overcast
10:51 AM 52.0 °F 39.0 °F 61% 30.30 in 10.0 mi East 13.8 mph - N/A   Scattered Clouds
11:51 AM 53.1 °F 41.0 °F 64% 30.31 in 10.0 mi East 9.2 mph - N/A   Overcast
12:51 PM 55.9 °F 43.0 °F 62% 30.30 in 10.0 mi ENE 6.9 mph - N/A   Mostly Cloudy
1:51 PM 55.9 °F 43.0 °F 62% 30.30 in 10.0 mi East 6.9 mph - N/A   Overcast
2:51 PM 59.0 °F 44.1 °F 58% 30.30 in 10.0 mi ESE 8.1 mph - N/A   Mostly Cloudy
3:51 PM 57.0 °F 45.0 °F 64% 30.30 in 10.0 mi South 15.0 mph - N/A   Clear
4:51 PM 57.0 °F 46.0 °F 67% 30.28 in 10.0 mi South 11.5 mph - N/A   Overcast
5:51 PM 55.0 °F 46.0 °F 72% 30.29 in 10.0 mi South 12.7 mph - N/A   Overcast
6:51 PM 55.9 °F 45.0 °F 67% 30.30 in 10.0 mi SSE 11.5 mph - N/A   Overcast
7:51 PM 55.0 °F 43.0 °F 64% 30.32 in 10.0 mi ESE 9.2 mph - N/A   Overcast
8:51 PM 54.0 °F 44.1 °F 69% 30.33 in 10.0 mi ESE 9.2 mph - N/A   Overcast
9:51 PM 53.1 °F 44.1 °F 71% 30.34 in 10.0 mi ESE 8.1 mph - N/A   Overcast
10:51 PM 53.1 °F 45.0 °F 74% 30.34 in 10.0 mi ESE 9.2 mph - N/A   Overcast
11:51 PM 53.1 °F 45.0 °F 74% 30.34 in 10.0 mi ESE 6.9 mph - N/A   Overcast